Time,TemperatureF,DewpointF,PressureIn,WindDirection,WindDirectionDegrees,WindSpeedMPH,WindSpeedGustMPH,Humidity,HourlyPrecipIn,Conditions,Clouds,dailyrainin,SolarRadiationWatts/m^2,SoftwareType,DateUTC
2013-10-19 00:11:00,37.0,25.0,-100.00,NNE,19,4.0,14.0,62,0.00,,,0.00,0.000000,,2013-10-19 08:11:00,
2013-10-19 00:22:00,37.0,25.0,-100.00,NNE,19,4.0,14.0,62,0.00,,,0.00,0.000000,,2013-10-19 08:22:00,
2013-10-19 00:32:00,37.0,25.0,-100.00,NNE,19,4.0,14.0,62,0.00,,,0.00,0.000000,,2013-10-19 08:32:00,
2013-10-19 00:33:00,37.0,25.0,-100.00,NNW,335,3.0,6.0,62,0.00,,,-99.99,0.000000,,2013-10-19 08:33:00,
2013-10-19 00:52:00,37.0,25.0,-100.00,NNW,335,3.0,6.0,62,0.00,,,-99.99,0.000000,,2013-10-19 08:52:00,
2013-10-19 01:01:00,37.0,25.0,-100.00,NNW,335,3.0,6.0,62,0.00,,,-99.99,0.000000,,2013-10-19 09:01:00,
2013-10-19 01:11:00,37.0,25.0,-100.00,NNW,335,3.0,6.0,62,0.00,,,-99.99,0.000000,,2013-10-19 09:11:00,
2013-10-19 01:21:00,37.0,25.0,-100.00,NNW,335,3.0,6.0,62,0.00,,,-99.99,0.000000,,2013-10-19 09:21:00,
2013-10-19 01:54:00,37.0,24.0,-100.00,NNW,343,3.0,8.0,58,0.00,,,-99.99,0.000000,,2013-10-19 09:54:00,
2013-10-19 02:03:00,37.0,24.0,-100.00,NNW,343,3.0,8.0,58,0.00,,,-99.99,0.000000,,2013-10-19 10:03:00,
2013-10-19 02:13:00,37.0,24.0,-100.00,NNW,343,3.0,8.0,58,0.00,,,-99.99,0.000000,,2013-10-19 10:13:00,
2013-10-19 02:23:00,37.0,24.0,-100.00,NNW,343,3.0,8.0,58,0.00,,,-99.99,0.000000,,2013-10-19 10:23:00,
2013-10-19 02:32:00,37.0,24.0,-100.00,NNW,343,3.0,8.0,58,0.00,,,-99.99,0.000000,,2013-10-19 10:32:00,
2013-10-19 02:33:00,38.0,24.0,-100.00,NNW,341,3.0,7.0,57,0.00,,,0.00,0.000000,,2013-10-19 10:33:00,
2013-10-19 02:53:00,38.0,24.0,-100.00,NNW,341,3.0,7.0,57,0.00,,,0.00,0.000000,,2013-10-19 10:53:00,
2013-10-19 03:02:00,38.0,24.0,-100.00,NNW,341,3.0,7.0,57,0.00,,,0.00,0.000000,,2013-10-19 11:02:00,
2013-10-19 03:12:00,38.0,24.0,-100.00,NNW,341,3.0,7.0,57,0.00,,,0.00,0.000000,,2013-10-19 11:12:00,
2013-10-19 03:22:00,38.0,24.0,-100.00,NNW,341,3.0,7.0,57,0.00,,,0.00,0.000000,,2013-10-19 11:22:00,
2013-10-19 03:52:00,38.0,28.0,-100.00,NNE,15,5.0,16.0,67,0.00,,,0.00,0.000000,,2013-10-19 11:52:00,
2013-10-19 04:01:00,38.0,28.0,-100.00,NNE,15,5.0,16.0,67,0.00,,,0.00,0.000000,,2013-10-19 12:01:00,
2013-10-19 04:11:00,38.0,28.0,-100.00,NNE,15,5.0,16.0,67,0.00,,,0.00,0.000000,,2013-10-19 12:11:00,
2013-10-19 04:21:00,38.0,28.0,-100.00,NNE,15,5.0,16.0,67,0.00,,,0.00,0.000000,,2013-10-19 12:21:00,
2013-10-19 04:32:00,38.0,28.0,-100.00,NNE,15,5.0,16.0,67,0.00,,,0.00,0.000000,,2013-10-19 12:32:00,
2013-10-19 04:52:00,35.0,28.0,-100.00,NW,320,9.0,15.0,74,0.00,,,0.00,0.000000,,2013-10-19 12:52:00,
2013-10-19 05:01:00,35.0,28.0,-100.00,NW,320,9.0,15.0,74,0.00,,,0.00,0.000000,,2013-10-19 13:01:00,
2013-10-19 05:11:00,35.0,28.0,-100.00,NW,320,9.0,15.0,74,0.00,,,0.00,0.000000,,2013-10-19 13:11:00,
2013-10-19 05:22:00,35.0,28.0,-100.00,NW,320,9.0,15.0,74,0.00,,,0.00,0.000000,,2013-10-19 13:22:00,
2013-10-19 05:32:00,35.0,28.0,-100.00,NW,320,9.0,15.0,74,0.00,,,0.00,0.000000,,2013-10-19 13:32:00,
2013-10-19 05:52:00,37.0,28.0,-100.00,NNW,339,8.0,14.0,71,0.00,,,0.00,0.000000,,2013-10-19 13:52:00,
2013-10-19 06:02:00,37.0,28.0,-100.00,NNW,339,8.0,14.0,71,0.00,,,0.00,0.000000,,2013-10-19 14:02:00,
2013-10-19 06:11:00,37.0,28.0,-100.00,NNW,339,8.0,14.0,71,0.00,,,0.00,0.000000,,2013-10-19 14:11:00,
2013-10-19 06:21:00,37.0,28.0,-100.00,NNW,339,8.0,14.0,71,0.00,,,0.00,0.000000,,2013-10-19 14:21:00,
2013-10-19 06:32:00,37.0,28.0,-100.00,NNW,339,8.0,14.0,71,0.00,,,0.00,0.000000,,2013-10-19 14:32:00,
2013-10-19 06:33:00,38.0,25.0,-100.00,NW,325,6.0,11.0,59,0.00,,,-99.99,0.000000,,2013-10-19 14:33:00,
2013-10-19 06:52:00,38.0,25.0,-100.00,NW,325,6.0,11.0,59,0.00,,,-99.99,0.000000,,2013-10-19 14:52:00,
2013-10-19 07:02:00,38.0,25.0,-100.00,NW,325,6.0,11.0,59,0.00,,,-99.99,0.000000,,2013-10-19 15:02:00,
2013-10-19 07:11:00,38.0,25.0,-100.00,NW,325,6.0,11.0,59,0.00,,,-99.99,0.000000,,2013-10-19 15:11:00,
2013-10-19 07:22:00,38.0,25.0,-100.00,NW,325,6.0,11.0,59,0.00,,,-99.99,0.000000,,2013-10-19 15:22:00,
2013-10-19 07:33:00,39.0,29.0,-100.00,NW,319,4.0,8.0,66,0.00,,,0.00,0.000000,,2013-10-19 15:33:00,
2013-10-19 07:55:00,39.0,29.0,-100.00,NW,319,4.0,8.0,66,0.00,,,0.00,0.000000,,2013-10-19 15:55:00,
2013-10-19 08:04:00,39.0,29.0,-100.00,NW,319,4.0,8.0,66,0.00,,,0.00,0.000000,,2013-10-19 16:04:00,
2013-10-19 08:14:00,39.0,29.0,-100.00,NW,319,4.0,8.0,66,0.00,,,0.00,0.000000,,2013-10-19 16:14:00,
2013-10-19 08:24:00,39.0,29.0,-100.00,NW,319,4.0,8.0,66,0.00,,,0.00,0.000000,,2013-10-19 16:24:00,
2013-10-19 08:33:00,37.0,34.0,-100.00,NW,319,7.0,11.0,89,0.01,,,0.01,0.000000,,2013-10-19 16:33:00,
2013-10-19 08:53:00,37.0,34.0,-100.00,NW,319,7.0,11.0,89,0.01,,,0.01,0.000000,,2013-10-19 16:53:00,
2013-10-19 09:03:00,37.0,34.0,-100.00,NW,319,7.0,11.0,89,0.01,,,0.01,0.000000,,2013-10-19 17:03:00,
2013-10-19 09:13:00,37.0,34.0,-100.00,NW,319,7.0,11.0,89,0.01,,,0.01,0.000000,,2013-10-19 17:13:00,
2013-10-19 09:22:00,37.0,34.0,-100.00,NW,319,7.0,11.0,89,0.01,,,0.01,0.000000,,2013-10-19 17:22:00,
2013-10-19 09:52:00,35.0,33.0,-100.00,NNW,333,6.0,12.0,93,0.03,,,-99.99,1.000000,,2013-10-19 17:52:00,
2013-10-19 10:02:00,35.0,33.0,-100.00,NNW,333,6.0,12.0,93,0.03,,,-99.99,1.000000,,2013-10-19 18:02:00,
2013-10-19 10:12:00,35.0,33.0,-100.00,NNW,333,6.0,12.0,93,0.03,,,-99.99,1.000000,,2013-10-19 18:12:00,
2013-10-19 10:21:00,35.0,33.0,-100.00,NNW,333,6.0,12.0,93,0.03,,,-99.99,1.000000,,2013-10-19 18:21:00,
2013-10-19 10:32:00,35.0,33.0,-100.00,NNW,333,6.0,12.0,93,0.03,,,-99.99,1.000000,,2013-10-19 18:32:00,
2013-10-19 10:52:00,36.0,35.0,-100.00,North,1,3.0,8.0,96,-99.99,,,0.02,12.000000,,2013-10-19 18:52:00,
2013-10-19 11:02:00,36.0,35.0,-100.00,North,1,3.0,8.0,96,-99.99,,,0.02,12.000000,,2013-10-19 19:02:00,
2013-10-19 11:12:00,36.0,35.0,-100.00,North,1,3.0,8.0,96,-99.99,,,0.02,12.000000,,2013-10-19 19:12:00,
2013-10-19 11:22:00,36.0,35.0,-100.00,North,1,3.0,8.0,96,-99.99,,,0.02,12.000000,,2013-10-19 19:22:00,
2013-10-19 11:32:00,36.0,35.0,-100.00,North,1,3.0,8.0,96,-99.99,,,0.02,12.000000,,2013-10-19 19:32:00,
2013-10-19 11:52:00,37.0,34.0,-100.00,NE,38,6.0,12.0,89,-99.99,,,-99.99,44.000000,,2013-10-19 19:52:00,
2013-10-19 12:03:00,37.0,34.0,-100.00,NE,38,6.0,12.0,89,-99.99,,,-99.99,44.000000,,2013-10-19 20:03:00,
2013-10-19 12:11:00,37.0,34.0,-100.00,NE,38,6.0,12.0,89,-99.99,,,-99.99,44.000000,,2013-10-19 20:11:00,
2013-10-19 12:22:00,37.0,34.0,-100.00,NE,38,6.0,12.0,89,-99.99,,,-99.99,44.000000,,2013-10-19 20:22:00,
2013-10-19 12:32:00,37.0,34.0,-100.00,NE,38,6.0,12.0,89,-99.99,,,-99.99,44.000000,,2013-10-19 20:32:00,
2013-10-19 12:33:00,37.0,34.0,-100.00,NNE,20,5.0,14.0,87,0.02,,,0.02,79.000000,,2013-10-19 20:33:00,
2013-10-19 12:52:00,37.0,34.0,-100.00,NNE,20,5.0,14.0,87,0.02,,,0.02,79.000000,,2013-10-19 20:52:00,
2013-10-19 13:02:00,37.0,34.0,-100.00,NNE,20,5.0,14.0,87,0.02,,,0.02,79.000000,,2013-10-19 21:02:00,
2013-10-19 13:11:00,37.0,34.0,-100.00,NNE,20,5.0,14.0,87,0.02,,,0.02,79.000000,,2013-10-19 21:11:00,
2013-10-19 13:21:00,37.0,34.0,-100.00,NNE,20,5.0,14.0,87,0.02,,,0.02,79.000000,,2013-10-19 21:21:00,
2013-10-19 13:33:00,38.0,35.0,-100.00,North,349,5.0,10.0,88,-99.99,,,0.00,71.000000,,2013-10-19 21:33:00,
2013-10-19 13:54:00,38.0,35.0,-100.00,North,349,5.0,10.0,88,-99.99,,,0.00,71.000000,,2013-10-19 21:54:00,
2013-10-19 14:04:00,38.0,35.0,-100.00,North,349,5.0,10.0,88,-99.99,,,0.00,71.000000,,2013-10-19 22:04:00,
2013-10-19 14:14:00,38.0,35.0,-100.00,North,349,5.0,10.0,88,-99.99,,,0.00,71.000000,,2013-10-19 22:14:00,
2013-10-19 14:24:00,38.0,35.0,-100.00,North,349,5.0,10.0,88,-99.99,,,0.00,71.000000,,2013-10-19 22:24:00,
2013-10-19 14:33:00,37.0,35.0,-100.00,NNE,23,9.0,23.0,91,0.04,,,0.04,107.000000,,2013-10-19 22:33:00,
2013-10-19 14:53:00,37.0,35.0,-100.00,NNE,23,9.0,23.0,91,0.04,,,0.04,107.000000,,2013-10-19 22:53:00,
2013-10-19 15:03:00,37.0,35.0,-100.00,NNE,23,9.0,23.0,91,0.04,,,0.04,107.000000,,2013-10-19 23:03:00,
2013-10-19 15:12:00,37.0,35.0,-100.00,NNE,23,9.0,23.0,91,0.04,,,0.04,107.000000,,2013-10-19 23:12:00,
2013-10-19 15:22:00,37.0,35.0,-100.00,NNE,23,9.0,23.0,91,0.04,,,0.04,107.000000,,2013-10-19 23:22:00,
2013-10-19 15:52:00,38.0,34.0,-100.00,ENE,60,10.0,23.0,86,-99.99,,,-99.99,157.000000,,2013-10-19 23:52:00,
2013-10-19 16:02:00,38.0,34.0,-100.00,ENE,60,10.0,23.0,86,-99.99,,,-99.99,157.000000,,2013-10-20 00:02:00,
2013-10-19 16:11:00,38.0,34.0,-100.00,ENE,60,10.0,23.0,86,-99.99,,,-99.99,157.000000,,2013-10-20 00:11:00,
2013-10-19 16:22:00,38.0,34.0,-100.00,ENE,60,10.0,23.0,86,-99.99,,,-99.99,157.000000,,2013-10-20 00:22:00,
2013-10-19 16:32:00,38.0,34.0,-100.00,ENE,60,10.0,23.0,86,-99.99,,,-99.99,157.000000,,2013-10-20 00:32:00,
2013-10-19 16:52:00,38.0,35.0,-100.00,East,82,13.0,26.0,90,-99.99,,,-99.99,151.000000,,2013-10-20 00:52:00,
2013-10-19 17:02:00,38.0,35.0,-100.00,East,82,13.0,26.0,90,-99.99,,,-99.99,151.000000,,2013-10-20 01:02:00,
2013-10-19 17:11:00,38.0,35.0,-100.00,East,82,13.0,26.0,90,-99.99,,,-99.99,151.000000,,2013-10-20 01:11:00,
2013-10-19 17:21:00,38.0,35.0,-100.00,East,82,13.0,26.0,90,-99.99,,,-99.99,151.000000,,2013-10-20 01:21:00,
2013-10-19 17:32:00,38.0,35.0,-100.00,East,82,13.0,26.0,90,-99.99,,,-99.99,151.000000,,2013-10-20 01:32:00,
2013-10-19 17:52:00,38.0,34.0,-100.00,East,98,9.0,19.0,85,0.00,,,-99.99,69.000000,,2013-10-20 01:52:00,
2013-10-19 18:02:00,38.0,34.0,-100.00,East,98,9.0,19.0,85,0.00,,,-99.99,69.000000,,2013-10-20 02:02:00,
2013-10-19 18:11:00,38.0,34.0,-100.00,East,98,9.0,19.0,85,0.00,,,-99.99,69.000000,,2013-10-20 02:11:00,
2013-10-19 18:22:00,38.0,34.0,-100.00,East,98,9.0,19.0,85,0.00,,,-99.99,69.000000,,2013-10-20 02:22:00,
2013-10-19 18:32:00,38.0,34.0,-100.00,East,98,9.0,19.0,85,0.00,,,-99.99,69.000000,,2013-10-20 02:32:00,
2013-10-19 18:33:00,37.0,31.0,-100.00,SSE,162,10.0,17.0,80,0.00,,,-99.99,18.000000,,2013-10-20 02:33:00,
2013-10-19 18:52:00,37.0,31.0,-100.00,SSE,162,10.0,17.0,80,0.00,,,-99.99,18.000000,,2013-10-20 02:52:00,
2013-10-19 19:02:00,37.0,31.0,-100.00,SSE,162,10.0,17.0,80,0.00,,,-99.99,18.000000,,2013-10-20 03:02:00,
2013-10-19 19:12:00,37.0,31.0,-100.00,SSE,162,10.0,17.0,80,0.00,,,-99.99,18.000000,,2013-10-20 03:12:00,
2013-10-19 19:21:00,37.0,31.0,-100.00,SSE,162,10.0,17.0,80,0.00,,,-99.99,18.000000,,2013-10-20 03:21:00,
2013-10-19 19:33:00,37.0,30.0,-100.00,SSE,153,9.0,16.0,75,0.00,,,-99.99,0.000000,,2013-10-20 03:33:00,
2013-10-19 19:55:00,37.0,30.0,-100.00,SSE,153,9.0,16.0,75,0.00,,,-99.99,0.000000,,2013-10-20 03:55:00,
2013-10-19 20:02:00,-999.0,-99.9,-100.00,SSE,153,9.0,16.0,-999,-99.99,,,-99.99,0.000000,,2013-10-20 04:02:00,
2013-10-19 20:14:00,37.0,30.0,-100.00,SSE,153,9.0,16.0,75,0.00,,,-99.99,0.000000,,2013-10-20 04:14:00,
2013-10-19 20:24:00,37.0,30.0,-100.00,SSE,153,9.0,16.0,75,0.00,,,-99.99,0.000000,,2013-10-20 04:24:00,
2013-10-19 20:33:00,35.0,26.0,-100.00,South,188,9.0,15.0,70,0.00,,,0.00,0.000000,,2013-10-20 04:33:00,
2013-10-19 20:54:00,35.0,26.0,-100.00,South,188,9.0,15.0,70,0.00,,,0.00,0.000000,,2013-10-20 04:54:00,
2013-10-19 21:04:00,35.0,26.0,-100.00,South,188,9.0,15.0,70,0.00,,,0.00,0.000000,,2013-10-20 05:04:00,
2013-10-19 21:13:00,35.0,26.0,-100.00,South,188,9.0,15.0,70,0.00,,,0.00,0.000000,,2013-10-20 05:13:00,
2013-10-19 21:23:00,35.0,26.0,-100.00,South,188,9.0,15.0,70,0.00,,,0.00,0.000000,,2013-10-20 05:23:00,
2013-10-19 21:52:00,35.0,23.0,-100.00,SSW,197,5.0,10.0,61,0.00,,,0.00,0.000000,,2013-10-20 05:52:00,
2013-10-19 22:02:00,35.0,23.0,-100.00,SSW,197,5.0,10.0,61,0.00,,,0.00,0.000000,,2013-10-20 06:02:00,
2013-10-19 22:12:00,35.0,23.0,-100.00,SSW,197,5.0,10.0,61,0.00,,,0.00,0.000000,,2013-10-20 06:12:00,
2013-10-19 22:22:00,35.0,23.0,-100.00,SSW,197,5.0,10.0,61,0.00,,,0.00,0.000000,,2013-10-20 06:22:00,
2013-10-19 22:32:00,35.0,23.0,-100.00,SSW,197,5.0,10.0,61,0.00,,,0.00,0.000000,,2013-10-20 06:32:00,
2013-10-19 22:52:00,33.0,23.0,-100.00,South,191,8.0,12.0,66,0.00,,,0.00,0.000000,,2013-10-20 06:52:00,
2013-10-19 23:02:00,33.0,23.0,-100.00,South,191,8.0,12.0,66,0.00,,,0.00,0.000000,,2013-10-20 07:02:00,
2013-10-19 23:12:00,33.0,23.0,-100.00,South,191,8.0,12.0,66,0.00,,,0.00,0.000000,,2013-10-20 07:12:00,
2013-10-19 23:22:00,33.0,23.0,-100.00,South,191,8.0,12.0,66,0.00,,,0.00,0.000000,,2013-10-20 07:22:00,
2013-10-19 23:32:00,33.0,23.0,-100.00,South,191,8.0,12.0,66,0.00,,,0.00,0.000000,,2013-10-20 07:32:00,
2013-10-19 23:52:00,33.0,23.0,-100.00,NE,48,7.0,15.0,65,0.00,,,0.00,0.000000,,2013-10-20 07:52:00,